Overview Statistics Trail Chart Weather Telemetry Raw packets
 

This is the latest recevied weather packets stored in our database for station/object NB9X. If no packets are shown the sender has not sent any weather packets the latest 10 day(s).

<< 72 73 74 75 76 77 78 >>
Time Temp. Humidity Pressure Rain* Wind** Luminosity Snow
1788134670 25° C 100% 1015.2 hPa 1.27 mm - - -
1788134370 25° C 100% 1015.1 hPa 1.27 mm - - -
1788134070 24.44° C 100% 1015.1 hPa 1.02 mm - - -
1788133770 24.44° C 100% 1015.1 hPa 1.02 mm - - -
1788133470 25° C 100% 1015 hPa 0.76 mm - - -
1788133170 25° C 100% 1015.1 hPa 0.51 mm - - -
1788132870 25° C 100% 1015.1 hPa 0.51 mm - - -
1788132570 25° C 100% 1015.2 hPa 0.51 mm - - -
1788132270 25° C 100% 1015.3 hPa 0.51 mm - - -
1788131970 25° C 100% 1015.1 hPa 0.76 mm - - -
1788131670 25° C 100% 1015.2 hPa 1.02 mm - - -
1788131370 25° C 100% 1015.2 hPa 1.27 mm - - -
1788131070 25° C 100% 1015.2 hPa 1.52 mm - - -
1788130770 25° C 100% 1015.2 hPa 2.03 mm - - -
1788130470 25° C 100% 1015.1 hPa 3.3 mm - - -
1788130170 25° C 100% 1015.1 hPa 6.1 mm - - -
1788129870 25° C 100% 1015 hPa 8.38 mm - - -
1788129570 25° C 100% 1015 hPa 12.45 mm - - -
1788129270 24.44° C 100% 1015 hPa 18.03 mm - - -
1788128970 24.44° C 100% 1015 hPa 20.07 mm - - -
1788128670 25° C 100% 1015.1 hPa 20.32 mm - - -
1788128370 25° C 100% 1015 hPa 20.07 mm - - -
1788128070 24.44° C 100% 1015 hPa 19.81 mm - - -
1788127770 23.89° C 100% 1015 hPa 19.56 mm - - -
1788127470 23.89° C 100% 1015.2 hPa 19.05 mm - - -

* Rain latest hour (hover to see other rain measurements)
** Current wind speed in m/s (hover to see current wind gust speed)